(250) Bettina
ephemeris date magn radius delta ra dec elong phase
Today13 Jul 202613.32.745 AU3.596 AU05h26m+30°38'28.5°10.2°
Opposition18 Jan 202711.62.727 AU1.781 AU08h20m+39°55'160.2°7.0°
(250) Bettina - 2026-07-13
astro.vanbuitenen.nl


 
-1 year
-1 month
-1 day
Now
+1 day
+1 month
+1 year

The interactive orbit chart above shows the body's path through the solar system and its position at the given date. Green and blue lines are shown perpendicular to the ecliptic plane: Green if the path is above the ecliptic plane, blue if it is below. (Left-click and drag to rotate the view; Right-click and drag to move the view; Use scroll wheel to zoom in our out.)

The orbital elements of Bettina are:

            e (Eccentricity)                : 0.1370845
            a (Semimajor axis)              : 3.1414623
            i (Inclination)                 : 12.82165
            Ω (Longitude of ascending node) : 23.78626
            ω (Argument of perihelion)      : 76.00795
            M (Mean anomaly)                : 333.99820
            Epoch                           : 2026 Jun 09

            L (Longitude of perihelion)     : 99.45098
            B (Latitude of perihelion)      : 12.43504
            P (Orbital period in years)     : 5.57            
        

The light curve chart below shows the estimated development of the minor planet's magnitude.


The all-sky chart below shows the path of the minor planet over the same period as the light curve. The current position is marked yellow.





The following chart shows the path of the minor planet in the next few days. The field of view is optimized for (~10x50) binoculars and finderscopes.




Ephemerides:
Date       Time       RA (2000)    DEC (2000)    delta   radius  elong  phase   PA    magn
2026-07-13 00:00 UT   05 26 25.4   +30 38 40     3.596    2.745   28.5   10.2   281   13.3 
2026-07-13 09:52 UT   05 27 12.3   +30 40 11     3.593    2.745   28.7   10.2   281   13.3 
2026-07-14 00:00 UT   05 28 19.5   +30 42 20     3.589    2.745   29.0   10.3   281   13.3 
2026-07-15 00:00 UT   05 30 13.6   +30 45 55     3.583    2.744   29.5   10.5   280   13.3 
2026-07-16 00:00 UT   05 32 07.7   +30 49 26     3.576    2.743   30.0   10.7   280   13.3 
2026-07-17 00:00 UT   05 34 01.8   +30 52 53     3.569    2.743   30.6   10.9   280   13.3 
2026-07-18 00:00 UT   05 35 55.8   +30 56 16     3.562    2.742   31.1   11.0   280   13.3 
2026-07-19 00:00 UT   05 37 49.8   +30 59 36     3.555    2.742   31.6   11.2   280   13.3 
2026-07-20 00:00 UT   05 39 43.7   +31 02 51     3.547    2.741   32.2   11.4   280   13.3 
2026-07-21 00:00 UT   05 41 37.6   +31 06 02     3.540    2.741   32.7   11.6   280   13.3 
2026-07-22 00:00 UT   05 43 31.4   +31 09 09     3.533    2.740   33.2   11.7   280   13.3 
2026-07-23 00:00 UT   05 45 25.2   +31 12 13     3.525    2.740   33.8   11.9   280   13.3 
2026-07-24 00:00 UT   05 47 18.9   +31 15 12     3.517    2.739   34.3   12.1   280   13.3 
2026-07-25 00:00 UT   05 49 12.5   +31 18 08     3.510    2.738   34.9   12.2   280   13.3 
2026-07-26 00:00 UT   05 51 06.0   +31 20 60     3.502    2.738   35.4   12.4   280   13.3 
2026-07-27 00:00 UT   05 52 59.4   +31 23 48     3.494    2.737   35.9   12.6   280   13.3 
2026-07-28 00:00 UT   05 54 52.8   +31 26 32     3.486    2.737   36.5   12.7   280   13.3 
2026-07-29 00:00 UT   05 56 46.0   +31 29 13     3.478    2.736   37.0   12.9   280   13.3 
2026-07-30 00:00 UT   05 58 39.1   +31 31 50     3.470    2.736   37.6   13.1   281   13.3 
2026-07-31 00:00 UT   06 00 32.1   +31 34 23     3.461    2.735   38.1   13.2   281   13.3 
2026-08-01 00:00 UT   06 02 25.0   +31 36 52     3.453    2.735   38.6   13.4   281   13.3 
2026-08-02 00:00 UT   06 04 17.8   +31 39 18     3.445    2.734   39.2   13.6   281   13.3 


    Terminology:
            
    delta:  distance between minor planet and earth in AU
    radius: distance between minor planet and sun in AU
    magn:   magnitude (brightness) estimate    
    ra:     right ascension in hours (24h = 360deg)
    dec:    declination in degrees
    elong:  elongation in degrees (angle sun-earth-minor planet)    
    phase:  phase angle in degrees (angle sun-minor planet-earth)        
    AU:     Astronomical Unit (mean distance between earth and sun: 149597870.7 km
    

Orbital elements provided by the MPC (Minor Planet Center).
Calculations by a modified version of AAPlus, a C# implementation of the AA+ project by PJ Naughter from the algorithms presented in the book "Astronomical Algorithms" by Jean Meeus.
NGC2000 dso catalog and star labels from VizieR as provided by the Strasbourg astronomical Data Center.
Tycho2 catalog from the ESO archive.